Location: Newark
(51.3318°N, 0.0053°E)
Time: 07:20:38
(UTC+00:00)

ISS - Visible Passes

Search period start: 09 December 2023 00:00
Search period end: 19 December 2023 00:00
Orbit: 415 x 417 km, 51.6° (Epoch: 09 December)

Date Brightness Start Highest point End Pass type
(mag) Time Alt. Az. Time Alt. Az. Time Alt. Az.
16 Dec -0.6 06:43:32 10° S 06:45:35 15° SE 06:47:39 10° ESE visible
17 Dec -0.2 05:56:32 10° SE 05:56:48 10° SE 05:57:03 10° SE visible
18 Dec -1.7 06:40:52 10° SSW 06:43:50 29° SSE 06:46:47 10° E visible
